CW6617 Weather Reports


Display with metric or nautical units.
time (UTC)temp
F
wind
direction
speed
MPH
gust
MPH
rain 1hr
in
rain 24hr
in
rain mn
in
humidity
%
barometer
mb
20201206011207 37 353 2.0 6.0 0.00 0.01 0.00 93 998.9
20201206010705 37 356 2.0 7.0 0.00 0.01 0.00 93 998.9
20201206010212 37 49 2.0 6.0 0.00 0.01 0.00 93 998.9
20201206004705 37 14 2.0 5.0 0.00 0.01 0.00 93 998.7
20201206004209 37 26 2.0 6.0 0.00 0.01 0.00 93 998.7
20201206003709 37 22 2.0 6.0 0.00 0.01 0.00 93 998.7
20201206003328 37 11 2.0 6.0 0.00 0.01 0.00 93 998.7
20201206001705 37 344 2.0 7.0 0.00 0.01 0.00 93 998.8
20201206001206 37 28 3.0 7.0 0.00 0.01 0.00 93 998.7
20201206000707 37 4 3.0 9.0 0.00 0.01 0.00 93 998.6
20201206000210 37 354 2.0 6.0 0.00 0.01 0.00 93 998.5
20201205234708 37 6 2.0 5.0 0.00 0.01 0.01 93 998.5
20201205234206 36 12 3.0 6.0 0.00 0.01 0.01 93 998.4
20201205233706 37 355 2.0 5.0 0.00 0.01 0.01 93 998.5
20201205233208 36 35 2.0 5.0 0.00 0.01 0.01 93 998.5
20201205231706 37 324 1.0 2.0 0.00 0.01 0.01 93 998.4
20201205231206 37 321 1.0 5.0 0.00 0.01 0.01 92 998.4
20201205230705 37 2 1.0 3.0 0.00 0.01 0.01 92 998.3
20201205230210 37 11 2.0 3.0 0.00 0.01 0.01 92 998.3
20201205224705 37 340 2.0 3.0 0.00 0.01 0.01 92 998.2
20201205224207 37 356 2.0 6.0 0.00 0.01 0.01 93 998.1
20201205223706 37 33 3.0 8.0 0.00 0.01 0.01 93 998.1
20201205223206 37 11 2.0 6.0 0.00 0.01 0.01 92 998.1
20201205221706 37 13 2.0 5.0 0.00 0.01 0.01 92 998.1
20201205221206 37 47 2.0 3.0 0.00 0.01 0.01 92 998.2
20201205220713 37 59 2.0 5.0 0.00 0.01 0.01 92 998.2
20201205220207 37 12 1.0 6.0 0.00 0.01 0.01 92 998.1
20201205214706 37 59 3.0 6.0 0.00 0.01 0.01 92 998.0
20201205214206 37 343 2.0 5.0 0.00 0.01 0.01 92 998.0
20201205213710 37 3 2.0 5.0 0.00 0.01 0.01 92 998.0
20201205213208 37 12 1.0 9.0 0.00 0.01 0.01 92 998.0
20201205211710 38 2 1.0 6.0 0.00 0.01 0.01 92 998.0
20201205211209 38 26 3.0 9.0 0.00 0.01 0.01 92 997.9
20201205210708 38 1 3.0 7.0 0.00 0.01 0.01 92 997.9
20201205210216 38 6 3.0 6.0 0.00 0.01 0.01 92 997.9
20201205204706 38 2 3.0 9.0 0.00 0.01 0.01 92 997.7
20201205204211 38 22 3.0 6.0 0.00 0.01 0.01 91 997.7
20201205203708 38 28 2.0 5.0 0.00 0.01 0.01 91 997.7
20201205203206 38 3 2.0 7.0 0.00 0.01 0.01 91 997.6
20201205201706 38 64 2.0 6.0 0.00 0.01 0.01 91 997.4
20201205201207 38 77 2.0 3.0 0.00 0.01 0.01 91 997.3
20201205200706 38 28 3.0 6.0 0.00 0.01 0.01 91 997.2
20201205200206 38 62 3.0 8.0 0.00 0.01 0.01 91 997.2
20201205194708 38 17 2.0 8.0 0.00 0.01 0.01 90 997.1
20201205194209 38 17 1.0 6.0 0.00 0.01 0.01 90 997.1
20201205193706 39 5 1.0 5.0 0.00 0.01 0.01 89 997.0
20201205193206 39 59 3.0 7.0 0.00 0.01 0.01 89 997.0
20201205191707 39 59 2.0 6.0 0.00 0.01 0.01 89 996.8
20201205191208 39 54 2.0 6.0 0.00 0.01 0.01 89 996.8
20201205190707 39 77 3.0 6.0 0.00 0.01 0.01 89 996.7
20201205190206 39 64 5.0 8.0 0.00 0.01 0.01 89 996.7
20201205184706 39 60 2.0 5.0 0.00 0.01 0.01 88 996.6
20201205184213 39 52 2.0 5.0 0.00 0.01 0.01 88 996.5
20201205183708 39 53 4.0 8.0 0.00 0.01 0.01 88 996.5
20201205183208 39 44 3.0 9.0 0.00 0.01 0.01 88 996.5
20201205181708 39 44 2.0 6.0 0.00 0.01 0.01 88 996.3
20201205181206 39 39 3.0 6.0 0.00 0.01 0.01 88 996.3
20201205180708 39 54 5.0 9.0 0.00 0.01 0.01 88 996.2
20201205180209 39 5 2.0 6.0 0.00 0.01 0.01 88 996.1
20201205174714 39 35 2.0 6.0 0.01 0.01 0.01 88 995.7
20201205174207 39 75 2.0 7.0 0.01 0.01 0.01 88 995.6
20201205173706 39 53 3.0 7.0 0.01 0.01 0.01 88 995.5
20201205173206 39 69 3.0 8.0 0.01 0.01 0.01 87 995.4
20201205171706 40 63 1.0 5.0 0.01 0.01 0.01 86 995.2
20201205171212 40 75 2.0 5.0 0.01 0.01 0.01 86 995.1
20201205170706 40 89 3.0 7.0 0.01 0.01 0.01 86 995.0
20201205170214 40 50 3.0 8.0 0.01 0.01 0.01 86 995.0
20201205164708 41 73 3.0 5.0 0.00 0.00 0.00 85 994.6
20201205164206 41 55 3.0 7.0 0.00 0.00 0.00 85 994.5
20201205163707 41 83 4.0 7.0 0.00 0.00 0.00 85 994.4
20201205163207 41 69 4.0 10.0 0.00 0.00 0.00 86 994.3
20201205161706 42 37 2.0 5.0 0.00 0.00 0.00 86 994.1
20201205161219 41 61 2.0 8.0 0.00 0.00 0.00 85 994.1
20201205160708 41 95 2.0 7.0 0.00 0.00 0.00 85 994.0
20201205160214 42 78 3.0 9.0 0.00 0.00 0.00 86 994.0
20201205154715 42 133 2.0 5.0 0.00 0.00 0.00 85 993.8
20201205154206 42 116 2.0 5.0 0.00 0.00 0.00 85 993.8
20201205153709 42 117 3.0 8.0 0.00 0.00 0.00 84 993.7
20201205153217 42 69 2.0 10.0 0.00 0.00 0.00 84 993.6
20201205151716 43 110 4.0 10.0 0.00 0.00 0.00 84 993.3
20201205151214 43 89 2.0 10.0 0.00 0.00 0.00 84 993.1
20201205150706 43 81 3.0 8.0 0.00 0.00 0.00 84 993.1
20201205150209 43 104 2.0 13.0 0.00 0.00 0.00 84 992.9
20201205144706 43 104 6.0 13.0 0.00 0.00 0.00 84 992.8
20201205144213 43 120 3.0 9.0 0.00 0.00 0.00 85 992.6
20201205143708 43 80 3.0 10.0 0.00 0.00 0.00 84 992.5
20201205143206 43 102 3.0 12.0 0.00 0.00 0.00 84 992.4
20201205141709 43 88 3.0 10.0 0.00 0.00 0.00 82 992.2
20201205141207 43 67 3.0 10.0 0.00 0.00 0.00 82 992.0
20201205140709 43 99 3.0 8.0 0.00 0.00 0.00 82 991.9
20201205140222 43 97 3.0 12.0 0.00 0.00 0.00 82 991.8
20201205134711 44 89 1.0 8.0 0.00 0.00 0.00 82 991.5
20201205134210 44 169 3.0 8.0 0.00 0.00 0.00 82 991.4
20201205133710 44 90 2.0 10.0 0.00 0.00 0.00 82 991.4
20201205133209 44 111 3.0 13.0 0.00 0.00 0.00 82 991.4
20201205131706 44 91 8.0 16.0 0.00 0.00 0.00 83 991.1
20201205131215 44 94 5.0 13.0 0.00 0.00 0.00 83 991.1
20201205130706 44 82 5.0 9.0 0.00 0.00 0.00 84 991.1
20201205130213 44 92 3.0 12.0 0.00 0.00 0.00 84 991.1
20201205124711 43 81 4.0 9.0 0.00 0.00 0.00 83 990.9
20201205124206 43 96 6.0 13.0 0.00 0.00 0.00 84 990.8
20201205123709 43 143 5.0 12.0 0.00 0.00 0.00 84 990.8
20201205123205 43 99 6.0 14.0 0.00 0.00 0.00 84 990.8
20201205121710 43 157 6.0 15.0 0.00 0.00 0.00 86 990.7
20201205121208 43 107 5.0 15.0 0.00 0.00 0.00 86 990.7
20201205120706 43 112 6.0 13.0 0.00 0.00 0.00 86 990.6
20201205120240 43 166 4.0 14.0 0.00 0.00 0.00 86 990.5
20201205114706 43 96 3.0 12.0 0.00 0.00 0.00 86 990.5
20201205114207 43 99 7.0 13.0 0.00 0.00 0.00 87 990.6
20201205113707 43 116 4.0 9.0 0.00 0.00 0.00 87 990.4
20201205113208 43 127 4.0 16.0 0.00 0.00 0.00 87 990.3
20201205111706 42 96 7.0 13.0 0.00 0.00 0.00 88 990.3
20201205111207 42 108 8.0 13.0 0.00 0.00 0.00 89 990.2
20201205110709 42 82 5.0 14.0 0.00 0.00 0.00 90 990.2
20201205110208 42 119 2.0 10.0 0.00 0.00 0.00 90 990.1
20201205104710 42 102 7.0 13.0 0.00 0.00 0.00 91 990.2
20201205104213 41 113 4.0 10.0 0.00 0.00 0.00 91 990.1
20201205103705 41 102 4.0 12.0 0.00 0.00 0.00 92 990.2
20201205103206 41 108 5.0 13.0 0.00 0.00 0.00 92 990.0
20201205101707 41 87 4.0 12.0 0.00 0.00 0.00 92 990.0
20201205101208 41 81 6.0 13.0 0.00 0.00 0.00 92 989.9
20201205100705 41 90 4.0 13.0 0.00 0.01 0.00 91 989.8
20201205100209 41 95 5.0 13.0 0.00 0.01 0.00 91 989.7
20201205094706 41 80 4.0 12.0 0.00 0.01 0.00 91 989.4
20201205094211 40 100 7.0 13.0 0.00 0.01 0.00 91 989.3
20201205093709 40 80 4.0 10.0 0.00 0.01 0.00 90 989.3
20201205093206 40 118 4.0 10.0 0.00 0.01 0.00 90 989.2
20201205091708 40 76 3.0 8.0 0.00 0.01 0.00 90 988.9
20201205091208 40 110 3.0 7.0 0.00 0.01 0.00 90 988.9
20201205090716 40 93 3.0 10.0 0.00 0.01 0.00 90 988.8
20201205090216 40 99 3.0 9.0 0.00 0.01 0.00 90 988.7
20201205084707 40 83 3.0 8.0 0.00 0.01 0.00 90 988.5
20201205084207 40 112 3.0 8.0 0.00 0.01 0.00 89 988.4
20201205083711 40 94 3.0 10.0 0.00 0.01 0.00 89 988.4
20201205083215 41 76 3.0 8.0 0.00 0.01 0.00 89 988.2
20201205081711 41 100 4.0 12.0 0.00 0.01 0.00 88 988.0
20201205081207 41 98 2.0 12.0 0.00 0.01 0.00 88 987.9
20201205080706 41 121 5.0 9.0 0.00 0.01 0.00 88 987.7
20201205080209 41 96 3.0 10.0 0.00 0.01 0.00 88 987.6
20201205074707 41 157 2.0 9.0 0.00 0.01 0.00 88 987.2
20201205074210 41 156 3.0 9.0 0.00 0.01 0.00 88 987.2
20201205073705 41 172 3.0 8.0 0.00 0.01 0.00 89 987.1
20201205073206 41 107 4.0 10.0 0.00 0.01 0.00 89 987.0
20201205071712 41 177 2.0 6.0 0.00 0.02 0.00 89 986.6
20201205071206 41 162 3.0 9.0 0.00 0.02 0.00 89 986.4
20201205070705 41 162 4.0 13.0 0.00 0.02 0.00 89 986.3
20201205070206 41 166 4.0 8.0 0.00 0.02 0.00 89 986.3
20201205064706 41 199 2.0 6.0 0.00 0.02 0.00 89 986.1
20201205064206 41 117 4.0 7.0 0.00 0.02 0.00 89 986.0
20201205063708 41 106 3.0 12.0 0.00 0.02 0.00 88 985.9
20201205063207 41 165 2.0 12.0 0.00 0.02 0.00 88 985.9
20201205061713 41 119 2.0 5.0 0.00 0.02 0.00 88 985.6
20201205061206 41 167 3.0 7.0 0.00 0.02 0.00 89 985.6
20201205060710 41 206 6.0 16.0 0.00 0.02 0.00 89 985.5
20201205060230 41 169 5.0 13.0 0.00 0.02 0.00 89 985.5
20201205054710 40 134 3.0 9.0 0.00 0.02 0.00 89 985.3
20201205054211 40 104 3.0 13.0 0.00 0.02 0.00 89 985.2
20201205053709 40 127 3.0 9.0 0.00 0.02 0.00 88 985.1
20201205053234 40 114 4.0 10.0 0.00 0.02 0.00 88 985.1
20201205051709 40 103 5.0 10.0 0.00 0.02 0.00 87 985.0
20201205051207 40 127 3.0 9.0 0.00 0.02 0.00 87 984.9
20201205050707 41 110 3.0 9.0 0.00 0.02 0.00 87 984.9
20201205050210 41 80 2.0 10.0 0.00 0.02 0.00 87 984.8
20201205044706 41 149 2.0 8.0 0.00 0.02 0.00 87 984.5
20201205044206 41 171 4.0 13.0 0.00 0.02 0.00 87 984.4
20201205043705 41 170 5.0 15.0 0.00 0.02 0.00 87 984.4
20201205043208 41 97 3.0 12.0 0.00 0.02 0.00 87 984.3
20201205041707 41 153 3.0 12.0 0.00 0.02 0.00 86 984.2
20201205041212 41 175 3.0 9.0 0.00 0.02 0.00 86 984.1
20201205040706 41 164 3.0 10.0 0.00 0.02 0.00 86 984.1
20201205040206 41 172 6.0 13.0 0.00 0.02 0.00 86 984.1
20201205034706 41 168 6.0 13.0 0.00 0.02 0.00 86 983.7
20201205034207 41 158 10.0 17.0 0.00 0.02 0.00 86 983.7
20201205033708 40 169 5.0 13.0 0.00 0.02 0.00 86 983.8
20201205033208 40 162 7.0 15.0 0.00 0.02 0.00 86 983.9
20201205031715 40 164 6.0 15.0 0.00 0.02 0.00 85 983.6
20201205031206 40 166 5.0 10.0 0.00 0.02 0.00 84 983.6
20201205030706 40 164 2.0 10.0 0.00 0.02 0.00 84 983.7
20201205030211 40 165 3.0 10.0 0.00 0.02 0.00 83 983.6
20201205024708 40 169 3.0 8.0 0.00 0.02 0.00 81 983.6
20201205024206 40 175 3.0 10.0 0.00 0.02 0.00 81 983.5
20201205023706 40 177 7.0 13.0 0.00 0.02 0.00 81 983.5
20201205023210 40 170 5.0 12.0 0.00 0.02 0.00 81 983.3
20201205021705 40 170 5.0 7.0 0.00 0.02 0.00 81 983.3
20201205021208 40 168 6.0 9.0 0.00 0.02 0.00 81 983.3
20201205020707 40 172 3.0 6.0 0.00 0.02 0.00 82 983.3
20201205020209 40 167 4.0 13.0 0.00 0.02 0.00 82 983.2
20201205014706 40 166 6.0 12.0 0.00 0.02 0.00 82 983.1
20201205014207 40 166 7.0 15.0 0.00 0.02 0.00 81 983.2
20201205013706 40 166 9.0 14.0 0.00 0.02 0.00 81 983.0
20201205013207 40 170 10.0 13.0 0.00 0.02 0.00 81 983.1
20201205011706 40 167 6.0 13.0 0.00 0.02 0.00 82 982.8